Location: Kitchener
(43.4500°N, 80.5000°W)
Time: 01:36:31
(UTC-05:00)

ATLAS 5 CENTAUR R/B - Visible Passes

Search period start: 21 November 2017 00:00
Search period end: 01 December 2017 00:00
Orbit: 620 x 1040 km, 63.4° (Epoch: 07 November)

Date Brightness Start Highest point End Pass type
(mag) Time Alt. Az. Time Alt. Az. Time Alt. Az.
21 Nov 3.2 05:43:49 10° S 05:48:03 39° ESE 05:52:38 10° NE visible
22 Nov 3.3 05:24:56 10° S 05:29:05 36° ESE 05:33:36 10° NE visible
23 Nov 3.3 05:06:03 10° S 05:10:08 34° ESE 05:14:34 10° NE visible
23 Nov 2.4 06:50:27 10° WSW 06:54:45 35° NW 06:59:28 10° NNE visible
24 Nov 3.4 04:48:13 16° S 04:51:11 31° ESE 04:55:31 10° NE visible
24 Nov 2.4 06:31:24 10° WSW 06:35:44 37° NW 06:40:30 10° NNE visible
25 Nov 3.4 04:31:26 27° SE 04:32:14 29° ESE 04:36:27 10° NE visible
25 Nov 2.3 06:13:04 14° WSW 06:16:43 39° NW 06:21:31 10° NNE visible
26 Nov 3.8 04:14:12 25° E 04:14:12 25° E 04:17:24 10° ENE visible
26 Nov 2.2 05:55:49 28° W 05:57:43 41° NW 06:02:34 10° NNE visible
27 Nov 4.3 03:56:41 18° ENE 03:56:41 18° ENE 03:58:20 10° ENE visible
27 Nov 2.1 05:38:17 43° WNW 05:38:42 44° NW 05:43:36 10° NNE visible
28 Nov 4.8 03:38:59 11° ENE 03:38:59 11° ENE 03:39:16 10° ENE visible
28 Nov 2.4 05:20:33 42° NNW 05:20:33 42° NNW 05:24:37 10° NNE visible
28 Nov 3.8 07:03:27 10° NW 07:05:48 13° NNW 07:08:15 10° N visible
29 Nov 3.0 05:02:41 31° N 05:02:41 31° N 05:05:39 10° NNE visible
29 Nov 3.7 06:44:16 10° NW 06:46:44 14° NNW 06:49:20 10° N visible
30 Nov 3.7 04:44:41 22° NNE 04:44:41 22° NNE 04:46:40 10° NNE visible
30 Nov 3.7 06:26:16 13° NW 06:27:41 14° NNW 06:30:24 10° N visible
